Time,TemperatureF,DewpointF,PressureIn,WindDirection,WindDirectionDegrees,WindSpeedMPH,WindSpeedGustMPH,Humidity,HourlyPrecipIn,Conditions,Clouds,dailyrainin,SoftwareType,DateUTC
2013-03-10 00:02:00,65.8,59.9,29.73,SE,131,7.0,15.0,81,0.00,,,0.00,meteohub,2013-03-10 06:02:00,
2013-03-10 00:07:00,65.7,59.7,29.72,SE,130,4.0,15.0,81,0.00,,,0.00,meteohub,2013-03-10 06:07:00,
2013-03-10 00:12:00,65.7,59.7,29.73,SW,225,3.0,14.0,81,0.00,,,0.00,meteohub,2013-03-10 06:12:00,
2013-03-10 00:17:00,65.5,59.9,29.73,SSE,152,11.0,14.0,82,0.00,,,0.00,meteohub,2013-03-10 06:17:00,
2013-03-10 00:22:00,65.5,59.9,29.74,South,191,4.0,16.0,82,0.00,,,0.00,meteohub,2013-03-10 06:22:00,
2013-03-10 00:32:00,65.5,59.9,29.74,ESE,116,10.0,15.0,82,0.00,,,0.00,meteohub,2013-03-10 06:32:00,
2013-03-10 00:42:00,65.3,60.1,29.73,SSE,149,6.0,18.0,83,0.00,,,0.00,meteohub,2013-03-10 06:42:00,
2013-03-10 00:47:00,65.3,60.1,29.72,East,88,9.0,18.0,83,0.00,,,0.00,meteohub,2013-03-10 06:47:00,
2013-03-10 00:52:00,65.3,60.1,29.71,South,180,11.0,17.0,83,0.00,,,0.00,meteohub,2013-03-10 06:52:00,
2013-03-10 01:02:00,65.1,60.1,29.73,SSW,200,3.0,21.0,84,0.00,,,0.00,meteohub,2013-03-10 07:02:00,
2013-03-10 01:07:00,65.1,60.1,29.73,SE,140,11.0,21.0,84,0.00,,,0.00,meteohub,2013-03-10 07:07:00,
2013-03-10 01:12:00,64.9,60.6,29.73,SSW,200,6.0,14.0,86,0.00,,,0.00,meteohub,2013-03-10 07:12:00,
2013-03-10 01:17:00,64.6,60.6,29.72,SSE,163,5.0,14.0,87,0.00,,,0.00,meteohub,2013-03-10 07:17:00,
2013-03-10 01:22:00,64.2,60.6,29.72,SSE,168,8.0,14.0,88,0.00,,,0.00,meteohub,2013-03-10 07:22:00,
2013-03-10 01:27:00,64.0,60.8,29.72,East,84,2.0,15.0,89,0.01,,,0.01,meteohub,2013-03-10 07:27:00,
2013-03-10 01:32:00,63.9,60.6,29.73,South,169,4.0,15.0,89,0.01,,,0.01,meteohub,2013-03-10 07:32:00,
2013-03-10 01:37:00,63.7,60.6,29.73,SSE,153,4.0,15.0,90,0.01,,,0.01,meteohub,2013-03-10 07:37:00,
2013-03-10 01:42:00,63.7,60.6,29.73,South,174,3.0,13.0,90,0.01,,,0.01,meteohub,2013-03-10 07:42:00,
2013-03-10 01:47:00,63.7,60.6,29.73,SE,130,6.0,15.0,90,0.01,,,0.01,meteohub,2013-03-10 07:47:00,
2013-03-10 01:57:00,63.7,60.6,29.71,SSE,159,3.0,15.0,90,0.01,,,0.01,meteohub,2013-03-10 07:57:00,
2013-03-10 03:02:00,63.9,60.8,29.70,SE,125,5.0,12.0,90,0.01,,,0.01,meteohub,2013-03-10 08:02:00,
2013-03-10 03:07:00,63.9,60.8,29.70,South,171,5.0,13.0,90,0.01,,,0.01,meteohub,2013-03-10 08:07:00,
2013-03-10 03:12:00,63.7,60.6,29.70,SE,130,5.0,13.0,90,0.01,,,0.01,meteohub,2013-03-10 08:12:00,
2013-03-10 03:17:00,63.7,61.0,29.70,SSE,152,2.0,11.0,91,0.01,,,0.01,meteohub,2013-03-10 08:17:00,
2013-03-10 03:27:00,63.3,60.6,29.69,South,169,8.0,12.0,91,0.01,,,0.02,meteohub,2013-03-10 08:27:00,
2013-03-10 03:32:00,63.1,60.8,29.68,ESE,105,2.0,12.0,92,0.01,,,0.02,meteohub,2013-03-10 08:32:00,
2013-03-10 03:37:00,63.1,60.8,29.70,South,186,2.0,12.0,92,0.01,,,0.02,meteohub,2013-03-10 08:37:00,
2013-03-10 03:42:00,63.1,61.2,29.69,SSE,157,3.0,11.0,93,0.01,,,0.02,meteohub,2013-03-10 08:42:00,
2013-03-10 03:47:00,63.1,61.2,29.69,SW,236,2.0,12.0,93,0.01,,,0.02,meteohub,2013-03-10 08:47:00,
2013-03-10 03:52:00,63.0,61.0,29.68,South,189,4.0,12.0,93,0.02,,,0.03,meteohub,2013-03-10 08:52:00,
2013-03-10 04:02:00,63.0,61.0,29.68,SSE,149,0.0,11.0,93,0.02,,,0.03,meteohub,2013-03-10 09:02:00,
2013-03-10 04:07:00,63.0,61.0,29.67,South,185,4.0,11.0,93,0.02,,,0.03,meteohub,2013-03-10 09:07:00,
2013-03-10 04:12:00,63.0,61.2,29.67,South,170,5.0,11.0,94,0.02,,,0.03,meteohub,2013-03-10 09:12:00,
2013-03-10 04:22:00,63.0,61.2,29.67,SSW,192,3.0,12.0,94,0.02,,,0.04,meteohub,2013-03-10 09:22:00,
2013-03-10 04:27:00,63.0,61.2,29.67,SSW,198,5.0,12.0,94,0.02,,,0.04,meteohub,2013-03-10 09:27:00,
2013-03-10 04:32:00,62.8,61.0,29.67,South,187,3.0,12.0,94,0.02,,,0.04,meteohub,2013-03-10 09:32:00,
2013-03-10 04:37:00,63.0,61.2,29.68,South,173,5.0,9.0,94,0.03,,,0.05,meteohub,2013-03-10 09:37:00,
2013-03-10 04:42:00,62.8,60.8,29.71,WNW,292,13.0,13.0,93,0.03,,,0.05,meteohub,2013-03-10 09:42:00,
2013-03-10 04:52:00,57.6,54.0,29.73,NNE,17,3.0,18.0,88,0.15,,,0.18,meteohub,2013-03-10 09:52:00,
2013-03-10 04:57:00,55.9,53.1,29.73,NW,310,4.0,18.0,90,0.30,,,0.33,meteohub,2013-03-10 09:57:00,
2013-03-10 05:02:00,55.0,52.5,29.71,West,267,8.0,15.0,91,0.33,,,0.36,meteohub,2013-03-10 10:02:00,
2013-03-10 05:07:00,54.5,52.2,29.73,WNW,301,4.0,11.0,92,0.34,,,0.37,meteohub,2013-03-10 10:07:00,
2013-03-10 05:12:00,54.1,52.2,29.73,NW,319,2.0,11.0,93,0.35,,,0.38,meteohub,2013-03-10 10:12:00,
2013-03-10 05:17:00,54.0,52.0,29.75,WNW,302,3.0,11.0,93,0.35,,,0.39,meteohub,2013-03-10 10:17:00,
2013-03-10 05:22:00,53.8,52.2,29.74,NNW,334,7.0,11.0,94,0.36,,,0.40,meteohub,2013-03-10 10:22:00,
2013-03-10 05:27:00,53.6,52.0,29.75,NW,317,3.0,9.0,94,0.38,,,0.42,meteohub,2013-03-10 10:27:00,
2013-03-10 05:32:00,53.4,51.8,29.76,West,271,3.0,9.0,94,0.41,,,0.46,meteohub,2013-03-10 10:32:00,
2013-03-10 05:37:00,53.4,52.0,29.77,WNW,291,2.0,9.0,95,0.41,,,0.46,meteohub,2013-03-10 10:37:00,
2013-03-10 05:42:00,53.4,52.0,29.77,NW,323,3.0,7.0,95,0.43,,,0.48,meteohub,2013-03-10 10:42:00,
2013-03-10 05:47:00,53.4,52.0,29.78,WNW,300,3.0,9.0,95,0.36,,,0.49,meteohub,2013-03-10 10:47:00,
2013-03-10 05:57:00,53.2,51.8,29.77,WNW,296,4.0,9.0,95,0.15,,,0.50,meteohub,2013-03-10 10:57:00,
2013-03-10 06:02:00,53.2,51.8,29.77,WNW,282,4.0,8.0,95,0.13,,,0.50,meteohub,2013-03-10 11:02:00,
2013-03-10 06:07:00,53.2,51.8,29.77,NNW,344,8.0,9.0,95,0.12,,,0.50,meteohub,2013-03-10 11:07:00,
2013-03-10 06:12:00,53.1,51.6,29.78,NW,325,6.0,13.0,95,0.13,,,0.51,meteohub,2013-03-10 11:12:00,
2013-03-10 06:22:00,53.1,51.4,29.77,WNW,288,3.0,13.0,94,0.10,,,0.51,meteohub,2013-03-10 11:22:00,
2013-03-10 06:27:00,53.1,51.4,29.77,NW,311,6.0,13.0,94,0.07,,,0.51,meteohub,2013-03-10 11:27:00,
2013-03-10 06:32:00,53.1,51.4,29.77,NW,309,5.0,11.0,94,0.05,,,0.51,meteohub,2013-03-10 11:32:00,
2013-03-10 06:37:00,53.1,51.4,29.76,North,355,2.0,8.0,94,0.04,,,0.51,meteohub,2013-03-10 11:37:00,
2013-03-10 06:42:00,53.1,51.4,29.77,North,350,4.0,8.0,94,0.03,,,0.51,meteohub,2013-03-10 11:42:00,
2013-03-10 06:47:00,53.1,51.4,29.76,NNW,335,1.0,8.0,94,0.02,,,0.51,meteohub,2013-03-10 11:47:00,
2013-03-10 06:52:00,53.1,51.4,29.76,NNW,331,4.0,6.0,94,0.01,,,0.51,meteohub,2013-03-10 11:52:00,
2013-03-10 06:57:00,53.1,51.1,29.76,NNW,329,4.0,6.0,93,0.01,,,0.51,meteohub,2013-03-10 11:57:00,
2013-03-10 07:02:00,53.1,51.1,29.76,NNW,336,3.0,6.0,93,0.01,,,0.51,meteohub,2013-03-10 12:02:00,
2013-03-10 07:12:00,52.9,50.9,29.77,NE,40,1.0,6.0,93,0.00,,,0.51,meteohub,2013-03-10 12:12:00,
2013-03-10 07:17:00,52.9,51.3,29.76,NE,40,2.0,5.0,94,0.00,,,0.51,meteohub,2013-03-10 12:17:00,
2013-03-10 07:27:00,52.9,51.3,29.78,NW,309,1.0,4.0,94,0.00,,,0.51,meteohub,2013-03-10 12:27:00,
2013-03-10 07:32:00,52.9,51.3,29.78,NW,309,1.0,4.0,94,0.00,,,0.51,meteohub,2013-03-10 12:32:00,
2013-03-10 07:37:00,52.9,51.3,29.78,NW,309,2.0,4.0,94,0.00,,,0.51,meteohub,2013-03-10 12:37:00,
2013-03-10 07:42:00,52.7,51.1,29.77,NW,309,1.0,3.0,94,0.00,,,0.51,meteohub,2013-03-10 12:42:00,
2013-03-10 07:47:00,52.7,51.1,29.77,NW,310,1.0,2.0,94,0.00,,,0.51,meteohub,2013-03-10 12:47:00,
2013-03-10 07:52:00,52.7,51.1,29.77,NW,310,1.0,2.0,94,0.00,,,0.51,meteohub,2013-03-10 12:52:00,
2013-03-10 07:57:00,52.5,50.9,29.78,NW,310,0.0,2.0,94,0.00,,,0.51,meteohub,2013-03-10 12:57:00,
2013-03-10 08:02:00,52.5,50.9,29.78,NW,310,0.0,2.0,94,0.00,,,0.51,meteohub,2013-03-10 13:02:00,
2013-03-10 08:07:00,52.5,51.1,29.78,NW,310,2.0,2.0,95,0.00,,,0.51,meteohub,2013-03-10 13:07:00,
2013-03-10 08:12:00,52.5,51.1,29.79,SE,129,2.0,2.0,95,0.00,,,0.51,meteohub,2013-03-10 13:12:00,
2013-03-10 08:22:00,52.7,51.3,29.80,SE,140,0.0,2.0,95,0.00,,,0.51,meteohub,2013-03-10 13:22:00,
2013-03-10 08:27:00,52.7,51.6,29.81,SE,140,2.0,2.0,96,0.00,,,0.51,meteohub,2013-03-10 13:27:00,
2013-03-10 08:32:00,52.9,51.8,29.79,South,173,0.0,3.0,96,0.00,,,0.51,meteohub,2013-03-10 13:32:00,
2013-03-10 08:37:00,53.1,52.0,29.78,South,173,0.0,3.0,96,0.00,,,0.51,meteohub,2013-03-10 13:37:00,
2013-03-10 08:42:00,53.1,52.0,29.78,South,173,1.0,3.0,96,0.00,,,0.51,meteohub,2013-03-10 13:42:00,
2013-03-10 08:47:00,53.1,52.0,29.78,SSE,148,3.0,3.0,96,0.01,,,0.52,meteohub,2013-03-10 13:47:00,
2013-03-10 08:57:00,53.2,52.2,29.78,SE,146,3.0,4.0,96,0.01,,,0.52,meteohub,2013-03-10 13:57:00,
2013-03-10 09:02:00,53.2,52.2,29.77,SE,146,0.0,4.0,96,0.01,,,0.52,meteohub,2013-03-10 14:02:00,
2013-03-10 09:07:00,53.2,52.2,29.78,SE,146,0.0,3.0,96,0.01,,,0.52,meteohub,2013-03-10 14:07:00,
2013-03-10 09:12:00,53.2,52.2,29.77,SE,146,1.0,3.0,96,0.01,,,0.52,meteohub,2013-03-10 14:12:00,
2013-03-10 09:17:00,53.2,52.2,29.79,SE,146,2.0,2.0,96,0.01,,,0.52,meteohub,2013-03-10 14:17:00,
2013-03-10 09:22:00,53.4,52.3,29.79,SE,146,0.0,2.0,96,0.01,,,0.52,meteohub,2013-03-10 14:22:00,
2013-03-10 09:27:00,53.4,52.3,29.78,SE,146,0.0,2.0,96,0.01,,,0.52,meteohub,2013-03-10 14:27:00,
2013-03-10 09:32:00,53.4,52.3,29.78,SE,144,2.0,2.0,96,0.01,,,0.52,meteohub,2013-03-10 14:32:00,
2013-03-10 09:37:00,53.8,52.9,29.79,SE,144,0.0,2.0,97,0.01,,,0.52,meteohub,2013-03-10 14:37:00,
2013-03-10 09:42:00,54.0,53.1,29.79,SE,144,1.0,2.0,97,0.01,,,0.52,meteohub,2013-03-10 14:42:00,
2013-03-10 09:47:00,54.0,52.9,29.80,South,169,1.0,2.0,96,0.00,,,0.52,meteohub,2013-03-10 14:47:00,
2013-03-10 09:52:00,54.1,53.1,29.80,South,186,0.0,2.0,96,0.00,,,0.52,meteohub,2013-03-10 14:52:00,
2013-03-10 09:57:00,54.1,53.2,29.82,South,186,2.0,3.0,97,0.00,,,0.52,meteohub,2013-03-10 14:57:00,
2013-03-10 10:02:00,54.3,53.4,29.81,SW,217,0.0,3.0,97,0.00,,,0.52,meteohub,2013-03-10 15:02:00,
2013-03-10 10:07:00,54.5,53.6,29.81,WNW,302,4.0,4.0,97,0.00,,,0.52,meteohub,2013-03-10 15:07:00,
2013-03-10 10:12:00,54.9,54.0,29.82,WNW,298,2.0,6.0,97,0.00,,,0.52,meteohub,2013-03-10 15:12:00,
2013-03-10 10:22:00,55.2,54.3,29.82,West,274,2.0,6.0,97,0.00,,,0.52,meteohub,2013-03-10 15:22:00,
2013-03-10 10:27:00,55.2,54.1,29.83,WNW,300,9.0,9.0,96,0.00,,,0.52,meteohub,2013-03-10 15:27:00,
2013-03-10 10:32:00,54.1,48.0,29.83,NW,305,8.0,15.0,80,0.00,,,0.52,meteohub,2013-03-10 15:32:00,
2013-03-10 10:37:00,53.1,47.1,29.84,WNW,294,4.0,15.0,80,0.00,,,0.52,meteohub,2013-03-10 15:37:00,
2013-03-10 10:47:00,52.9,47.8,29.85,NW,307,7.0,12.0,83,0.00,,,0.52,meteohub,2013-03-10 15:47:00,
2013-03-10 10:52:00,52.7,47.3,29.85,NW,305,2.0,12.0,82,0.00,,,0.52,meteohub,2013-03-10 15:52:00,
2013-03-10 10:57:00,52.9,47.8,29.86,WNW,283,6.0,12.0,83,0.00,,,0.52,meteohub,2013-03-10 15:57:00,
2013-03-10 11:07:00,53.2,47.3,29.86,WNW,296,4.0,10.0,80,0.00,,,0.52,meteohub,2013-03-10 16:07:00,
2013-03-10 11:12:00,54.0,48.9,29.86,West,259,3.0,15.0,83,0.00,,,0.52,meteohub,2013-03-10 16:12:00,
2013-03-10 11:22:00,55.0,48.9,29.87,WNW,300,2.0,15.0,80,0.00,,,0.52,meteohub,2013-03-10 16:22:00,
2013-03-10 11:27:00,55.2,49.1,29.87,NNW,331,3.0,16.0,80,0.00,,,0.52,meteohub,2013-03-10 16:27:00,
2013-03-10 11:37:00,55.9,49.8,29.88,SW,215,5.0,16.0,80,0.00,,,0.52,meteohub,2013-03-10 16:37:00,
2013-03-10 11:42:00,56.5,50.4,29.87,West,275,4.0,16.0,80,0.00,,,0.52,meteohub,2013-03-10 16:42:00,
2013-03-10 11:47:00,56.5,47.5,29.88,West,267,14.0,16.0,72,0.00,,,0.52,meteohub,2013-03-10 16:47:00,
2013-03-10 11:57:00,56.5,46.0,29.88,SW,216,9.0,17.0,68,0.00,,,0.52,meteohub,2013-03-10 16:57:00,
2013-03-10 12:02:00,56.8,46.8,29.88,WSW,249,8.0,17.0,69,0.00,,,0.52,meteohub,2013-03-10 17:02:00,
2013-03-10 12:07:00,56.8,45.1,29.89,NNW,327,3.0,17.0,65,0.00,,,0.52,meteohub,2013-03-10 17:07:00,
2013-03-10 12:12:00,56.5,43.7,29.89,NW,309,8.0,16.0,62,0.00,,,0.52,meteohub,2013-03-10 17:12:00,
2013-03-10 12:17:00,56.5,45.3,29.88,West,273,4.0,16.0,66,0.00,,,0.52,meteohub,2013-03-10 17:17:00,
2013-03-10 12:22:00,56.7,45.9,29.89,WNW,292,6.0,13.0,67,0.00,,,0.52,meteohub,2013-03-10 17:22:00,
2013-03-10 12:27:00,57.0,44.6,29.89,WNW,295,5.0,16.0,63,0.00,,,0.52,meteohub,2013-03-10 17:27:00,
2013-03-10 12:32:00,57.4,44.1,29.90,NW,307,6.0,16.0,61,0.00,,,0.52,meteohub,2013-03-10 17:32:00,
2013-03-10 12:37:00,57.7,43.9,29.90,WNW,292,6.0,14.0,60,0.00,,,0.52,meteohub,2013-03-10 17:37:00,
2013-03-10 12:47:00,58.3,46.2,29.90,NW,306,3.0,16.0,64,0.00,,,0.52,meteohub,2013-03-10 17:47:00,
2013-03-10 12:52:00,58.5,45.1,29.89,West,271,4.0,16.0,61,0.00,,,0.52,meteohub,2013-03-10 17:52:00,
2013-03-10 12:57:00,58.5,44.2,29.89,NW,310,9.0,14.0,59,0.00,,,0.52,meteohub,2013-03-10 17:57:00,
2013-03-10 13:02:00,58.5,44.6,29.89,SW,222,1.0,14.0,60,0.00,,,0.52,meteohub,2013-03-10 18:02:00,
2013-03-10 13:07:00,58.6,43.5,29.89,WNW,290,4.0,16.0,57,0.00,,,0.52,meteohub,2013-03-10 18:07:00,
2013-03-10 13:12:00,59.2,44.4,29.89,WNW,301,7.0,16.0,58,0.00,,,0.52,meteohub,2013-03-10 18:12:00,
2013-03-10 13:17:00,59.4,43.7,29.89,WSW,253,8.0,12.0,56,0.00,,,0.52,meteohub,2013-03-10 18:17:00,
2013-03-10 13:22:00,59.5,44.8,29.89,WNW,292,8.0,18.0,58,0.00,,,0.52,meteohub,2013-03-10 18:22:00,
2013-03-10 13:32:00,59.7,44.1,29.89,WSW,252,5.0,16.0,56,0.00,,,0.52,meteohub,2013-03-10 18:32:00,
2013-03-10 13:42:00,60.3,45.0,29.89,WSW,249,6.0,18.0,57,0.00,,,0.52,meteohub,2013-03-10 18:42:00,
2013-03-10 13:47:00,60.4,43.7,29.89,WSW,240,13.0,20.0,54,0.00,,,0.52,meteohub,2013-03-10 18:47:00,
2013-03-10 13:57:00,60.4,43.2,29.89,WNW,291,7.0,20.0,53,0.00,,,0.52,meteohub,2013-03-10 18:57:00,
2013-03-10 14:07:00,59.7,44.1,29.90,West,280,4.0,16.0,56,0.00,,,0.52,meteohub,2013-03-10 19:07:00,
2013-03-10 14:12:00,59.7,44.4,29.89,WNW,294,4.0,18.0,57,0.00,,,0.52,meteohub,2013-03-10 19:12:00,
2013-03-10 14:17:00,59.7,41.5,29.89,NNW,331,15.0,18.0,51,0.00,,,0.52,meteohub,2013-03-10 19:17:00,
2013-03-10 14:27:00,58.5,41.4,29.89,WSW,253,4.0,17.0,53,0.00,,,0.52,meteohub,2013-03-10 19:27:00,
2013-03-10 14:32:00,59.0,43.7,29.89,SW,233,9.0,17.0,57,0.00,,,0.52,meteohub,2013-03-10 19:32:00,
2013-03-10 14:37:00,59.7,43.5,29.89,West,265,7.0,17.0,55,0.00,,,0.52,meteohub,2013-03-10 19:37:00,
2013-03-10 14:42:00,60.3,42.1,29.88,NNW,330,6.0,18.0,51,0.00,,,0.52,meteohub,2013-03-10 19:42:00,
2013-03-10 14:47:00,60.3,44.1,29.89,WSW,257,7.0,18.0,55,0.00,,,0.52,meteohub,2013-03-10 19:47:00,
2013-03-10 14:57:00,59.7,42.6,29.89,WNW,302,8.0,18.0,53,0.00,,,0.52,meteohub,2013-03-10 19:57:00,
2013-03-10 15:02:00,60.1,43.0,29.89,NW,306,9.0,16.0,53,0.00,,,0.52,meteohub,2013-03-10 20:02:00,
2013-03-10 15:07:00,59.5,40.8,29.89,WNW,299,7.0,15.0,50,0.00,,,0.52,meteohub,2013-03-10 20:07:00,
2013-03-10 15:12:00,58.3,41.2,29.89,NW,309,7.0,15.0,53,0.00,,,0.52,meteohub,2013-03-10 20:12:00,
2013-03-10 15:22:00,57.9,41.9,29.90,NW,313,1.0,16.0,55,0.00,,,0.52,meteohub,2013-03-10 20:22:00,
2013-03-10 15:32:00,59.4,41.7,29.90,WNW,301,5.0,16.0,52,0.00,,,0.52,meteohub,2013-03-10 20:32:00,
2013-03-10 15:37:00,59.7,42.6,29.91,North,355,7.0,16.0,53,0.00,,,0.52,meteohub,2013-03-10 20:37:00,
2013-03-10 15:42:00,59.4,41.2,29.92,West,271,9.0,16.0,51,0.00,,,0.52,meteohub,2013-03-10 20:42:00,
2013-03-10 15:47:00,57.7,40.3,29.91,WNW,299,3.0,16.0,52,0.00,,,0.52,meteohub,2013-03-10 20:47:00,
2013-03-10 15:57:00,55.8,41.2,29.92,NNW,337,6.0,16.0,58,0.00,,,0.52,meteohub,2013-03-10 20:57:00,
2013-03-10 16:02:00,55.4,40.8,29.92,West,273,8.0,13.0,58,0.00,,,0.52,meteohub,2013-03-10 21:02:00,
2013-03-10 16:07:00,56.1,41.9,29.92,WNW,288,9.0,14.0,59,0.00,,,0.52,meteohub,2013-03-10 21:07:00,
2013-03-10 16:13:00,56.5,41.0,29.93,WNW,296,8.0,14.0,56,0.00,,,0.52,meteohub,2013-03-10 21:13:00,
2013-03-10 16:22:00,55.0,41.0,29.93,West,279,6.0,15.0,59,0.00,,,0.52,meteohub,2013-03-10 21:22:00,
2013-03-10 16:27:00,55.2,41.2,29.93,NNW,346,4.0,15.0,59,0.00,,,0.52,meteohub,2013-03-10 21:27:00,
2013-03-10 16:32:00,55.4,40.5,29.93,NW,321,11.0,13.0,57,0.00,,,0.52,meteohub,2013-03-10 21:32:00,
2013-03-10 16:37:00,54.9,39.4,29.93,WNW,297,6.0,17.0,56,0.00,,,0.52,meteohub,2013-03-10 21:37:00,
2013-03-10 16:42:00,54.0,39.9,29.93,West,277,7.0,17.0,59,0.00,,,0.52,meteohub,2013-03-10 21:42:00,
2013-03-10 16:47:00,53.4,40.3,29.93,WSW,255,8.0,14.0,61,0.00,,,0.52,meteohub,2013-03-10 21:47:00,
2013-03-10 16:57:00,52.9,38.5,29.94,NW,316,9.0,12.0,58,0.00,,,0.52,meteohub,2013-03-10 21:57:00,
2013-03-10 17:07:00,52.2,38.7,29.93,WSW,250,14.0,19.0,60,0.00,,,0.52,meteohub,2013-03-10 22:07:00,
2013-03-10 17:17:00,51.8,37.9,29.94,West,274,7.0,18.0,59,0.00,,,0.52,meteohub,2013-03-10 22:17:00,
2013-03-10 17:22:00,51.6,38.1,29.94,West,264,4.0,17.0,60,0.00,,,0.52,meteohub,2013-03-10 22:22:00,
2013-03-10 17:27:00,51.4,37.9,29.94,WNW,286,5.0,17.0,60,0.00,,,0.52,meteohub,2013-03-10 22:27:00,
2013-03-10 17:37:00,51.1,38.1,29.94,WSW,252,4.0,12.0,61,0.00,,,0.52,meteohub,2013-03-10 22:37:00,
2013-03-10 17:47:00,50.5,37.6,29.94,WSW,255,6.0,16.0,61,0.00,,,0.52,meteohub,2013-03-10 22:47:00,
2013-03-10 17:52:00,50.5,37.6,29.94,WNW,286,4.0,16.0,61,0.00,,,0.52,meteohub,2013-03-10 22:52:00,
2013-03-10 17:57:00,50.4,37.8,29.95,SW,224,3.0,13.0,62,0.00,,,0.52,meteohub,2013-03-10 22:57:00,
2013-03-10 18:02:00,50.4,37.8,29.95,WNW,302,5.0,12.0,62,0.00,,,0.52,meteohub,2013-03-10 23:02:00,
2013-03-10 18:07:00,50.5,38.5,29.95,WNW,302,7.0,12.0,63,0.00,,,0.52,meteohub,2013-03-10 23:07:00,
2013-03-10 18:17:00,50.2,37.2,29.96,WNW,293,2.0,11.0,61,0.00,,,0.52,meteohub,2013-03-10 23:17:00,
2013-03-10 18:22:00,50.0,37.6,29.96,NW,305,2.0,12.0,62,0.00,,,0.52,meteohub,2013-03-10 23:22:00,
2013-03-10 18:32:00,49.6,37.2,29.96,NW,309,1.0,12.0,62,0.00,,,0.52,meteohub,2013-03-10 23:32:00,
2013-03-10 18:37:00,49.5,37.0,29.96,NW,309,4.0,12.0,62,0.00,,,0.52,meteohub,2013-03-10 23:37:00,
2013-03-10 18:42:00,49.5,36.5,29.96,WNW,284,9.0,13.0,61,0.00,,,0.52,meteohub,2013-03-10 23:42:00,
2013-03-10 18:52:00,48.9,36.5,29.96,WNW,288,7.0,14.0,62,0.00,,,0.52,meteohub,2013-03-10 23:52:00,
2013-03-10 18:57:00,48.9,36.5,29.97,WNW,301,4.0,14.0,62,0.00,,,0.52,meteohub,2013-03-10 23:57:00,
2013-03-10 19:02:00,48.7,36.3,29.97,WNW,285,7.0,14.0,62,0.00,,,0.52,meteohub,2013-03-11 00:02:00,
2013-03-10 19:07:00,48.7,36.3,29.97,WNW,288,4.0,13.0,62,0.00,,,0.00,meteohub,2013-03-11 00:07:00,
2013-03-10 19:17:00,48.4,36.0,29.97,NW,309,7.0,14.0,62,0.00,,,0.00,meteohub,2013-03-11 00:17:00,
2013-03-10 19:22:00,48.4,35.6,29.98,WSW,252,5.0,14.0,61,0.00,,,0.00,meteohub,2013-03-11 00:22:00,
2013-03-10 19:27:00,48.2,35.4,29.98,WNW,298,4.0,14.0,61,0.00,,,0.00,meteohub,2013-03-11 00:27:00,
2013-03-10 19:37:00,48.0,35.6,29.98,NW,306,2.0,14.0,62,0.00,,,0.00,meteohub,2013-03-11 00:37:00,
2013-03-10 19:42:00,48.0,35.6,29.98,West,280,7.0,14.0,62,0.00,,,0.00,meteohub,2013-03-11 00:42:00,
2013-03-10 19:47:00,47.8,35.4,29.99,NW,310,8.0,14.0,62,0.00,,,0.00,meteohub,2013-03-11 00:47:00,
2013-03-10 19:52:00,47.8,35.1,29.99,WNW,296,9.0,14.0,61,0.00,,,0.00,meteohub,2013-03-11 00:52:00,
2013-03-10 20:02:00,47.8,35.4,29.99,WNW,300,7.0,12.0,62,0.00,,,0.00,meteohub,2013-03-11 01:02:00,
2013-03-10 20:07:00,47.7,34.9,29.99,WNW,286,5.0,12.0,61,0.00,,,0.00,meteohub,2013-03-11 01:07:00,
2013-03-10 20:17:00,47.7,35.2,30.00,West,279,5.0,15.0,62,0.00,,,0.00,meteohub,2013-03-11 01:17:00,
2013-03-10 20:22:00,47.7,35.6,30.00,NW,305,4.0,15.0,63,0.00,,,0.00,meteohub,2013-03-11 01:22:00,
2013-03-10 20:32:00,47.5,35.6,30.01,WNW,291,5.0,11.0,63,0.00,,,0.00,meteohub,2013-03-11 01:32:00,
2013-03-10 20:37:00,47.5,35.6,30.01,NW,306,3.0,11.0,63,0.00,,,0.00,meteohub,2013-03-11 01:37:00,
2013-03-10 20:47:00,47.5,36.0,30.02,NW,309,2.0,10.0,64,0.00,,,0.00,meteohub,2013-03-11 01:47:00,
2013-03-10 20:52:00,47.3,35.8,30.02,WNW,297,5.0,10.0,64,0.00,,,0.00,meteohub,2013-03-11 01:52:00,
2013-03-10 20:57:00,47.3,35.4,30.02,West,271,7.0,11.0,63,0.00,,,0.00,meteohub,2013-03-11 01:57:00,
2013-03-10 21:02:00,47.1,35.2,30.02,West,271,5.0,11.0,63,0.00,,,0.00,meteohub,2013-03-11 02:02:00,
2013-03-10 21:07:00,47.1,34.7,30.03,WNW,291,7.0,13.0,62,0.00,,,0.00,meteohub,2013-03-11 02:07:00,
2013-03-10 21:12:00,46.9,34.5,30.03,WSW,252,2.0,14.0,62,0.00,,,0.00,meteohub,2013-03-11 02:12:00,
2013-03-10 21:22:00,46.8,34.5,30.04,WNW,282,9.0,14.0,62,0.00,,,0.00,meteohub,2013-03-11 02:22:00,
2013-03-10 21:32:00,46.6,33.8,30.04,WNW,300,5.0,14.0,61,0.00,,,0.00,meteohub,2013-03-11 02:32:00,
2013-03-10 21:37:00,46.4,33.6,30.05,WNW,292,5.0,12.0,61,0.00,,,0.00,meteohub,2013-03-11 02:37:00,
2013-03-10 21:42:00,46.2,33.4,30.05,North,350,3.0,13.0,61,0.00,,,0.00,meteohub,2013-03-11 02:42:00,
2013-03-10 21:47:00,46.0,33.3,30.05,WNW,303,6.0,13.0,61,0.00,,,0.00,meteohub,2013-03-11 02:47:00,
2013-03-10 21:57:00,45.9,32.7,30.06,WNW,303,6.0,17.0,60,0.00,,,0.00,meteohub,2013-03-11 02:57:00,
2013-03-10 22:02:00,45.5,32.0,30.06,WNW,286,5.0,17.0,59,0.00,,,0.00,meteohub,2013-03-11 03:02:00,
2013-03-10 22:07:00,45.1,31.6,30.06,NW,314,7.0,14.0,59,0.00,,,0.00,meteohub,2013-03-11 03:07:00,
2013-03-10 22:17:00,44.4,31.5,30.06,NW,315,4.0,10.0,60,0.00,,,0.00,meteohub,2013-03-11 03:17:00,
2013-03-10 22:27:00,44.1,31.5,30.06,WNW,287,4.0,11.0,61,0.00,,,0.00,meteohub,2013-03-11 03:27:00,
2013-03-10 22:32:00,43.7,31.1,30.06,WNW,293,4.0,11.0,61,0.00,,,0.00,meteohub,2013-03-11 03:32:00,
2013-03-10 22:37:00,43.5,31.3,30.06,WNW,292,3.0,9.0,62,0.00,,,0.00,meteohub,2013-03-11 03:37:00,
2013-03-10 22:47:00,43.0,31.3,30.06,NW,308,2.0,9.0,63,0.00,,,0.00,meteohub,2013-03-11 03:47:00,
2013-03-10 22:52:00,42.8,31.1,30.06,NW,309,1.0,9.0,63,0.00,,,0.00,meteohub,2013-03-11 03:52:00,
2013-03-10 22:57:00,42.4,30.7,30.06,NW,314,2.0,6.0,63,0.00,,,0.00,meteohub,2013-03-11 03:57:00,
2013-03-10 23:02:00,42.3,30.9,30.06,WNW,301,2.0,6.0,64,0.00,,,0.00,meteohub,2013-03-11 04:02:00,
2013-03-10 23:07:00,42.1,31.1,30.06,WNW,293,0.0,4.0,65,0.00,,,0.00,meteohub,2013-03-11 04:07:00,
2013-03-10 23:12:00,41.9,30.9,30.05,WNW,295,1.0,5.0,65,0.00,,,0.00,meteohub,2013-03-11 04:12:00,
2013-03-10 23:22:00,41.4,30.9,30.05,WNW,295,0.0,3.0,66,0.00,,,0.00,meteohub,2013-03-11 04:22:00,
2013-03-10 23:32:00,41.2,31.5,30.04,WNW,295,1.0,3.0,68,0.00,,,0.00,meteohub,2013-03-11 04:32:00,
2013-03-10 23:37:00,40.8,31.1,30.03,WNW,295,2.0,3.0,68,0.00,,,0.00,meteohub,2013-03-11 04:37:00,
2013-03-10 23:42:00,40.6,31.3,30.02,WNW,296,2.0,3.0,69,0.00,,,0.00,meteohub,2013-03-11 04:42:00,
2013-03-10 23:47:00,40.6,31.3,30.02,NW,310,2.0,4.0,69,0.00,,,0.00,meteohub,2013-03-11 04:47:00,
2013-03-10 23:52:00,40.5,31.1,30.03,NW,310,1.0,4.0,69,0.00,,,0.00,meteohub,2013-03-11 04:52:00,
2013-03-10 23:57:00,40.3,30.9,30.02,NW,310,1.0,4.0,69,0.00,,,0.00,meteohub,2013-03-11 04:57:00,